Starlink 4445

operational
NORAD ID: 53474 Int'l Des: 2022-099 Owner: SPXS Country: US Constellation: starlink
LEOCIRCULARRETROGRADESSO

About Starlink 4445

Description loading...

Live Position

Loading 3D Globe...

Upcoming Passes

Altitude History

Altitude vs Time

uPlot chart will show altitude changes over time

Two-Line Element Set

1 53474U 22099K 25351.32337158 .00000306 00000-0 28379-4 0 9995
2 53474 97.6019 109.5765 0001711 83.8082 276.3337 15.01263582183623
Epoch: Dec 17, 2025 • Age: 11 hours

Current Status

Altitude 576.5 km
Velocity 7.57 km/s
Sub-Earth Point -33.66°S, 76.31°W
Launch Date Aug 12, 2022
Age 3.3 years
Type internet

Technical Details

Classification Payload
Mass 300.00 kg
Dry Mass 275.00 kg
Total Mass 300.00 kg
Length 0.20 m
Diameter 2.80 m
Span 9.00 m
Shape Box + pan
Manufacturer SPXS
Bus Type Starlink
Phase Status In Orbit
Owner/State SPXS/US

Large Constellations

Loading constellations...